Tracking 29091 objects as of 17-Jul-2024
HD Live streaming from Space Station
objects crossing your sky now

ATLAS 5 CENTAUR DEB

Track ATLAS 5 CENTAUR DEB now!


NORAD ID: 55857
Int'l Code: 2018-079HH
Perigee: 8,333.3 km
Apogee: 32,137.6 km
Inclination: 13.3 °
Period: 719.8 minutes
Semi major axis: 26606 km
RCS: Unknown
Launch date: October 17, 2018
Source: United States (US)
Launch site: AIR FORCE EASTERN TEST RANGE (AFETR)

Note: This is SATELLITE DEBRIS
Your satellite tracking list
Your tracking list is empty




NASA's NSSDC Master Catalog

Two Line Element Set (TLE):
1 55857U 18079HK  24197.43696070 -.00000127  00000-0  00000+0 0  9993
2 55857  13.2856  60.0996 4473417 267.8308  42.0161  2.00042674 12665
Source of the keplerian elements: AFSPC